User: anonymous   Login
Location: ??????
(30.5519°N, 47.7720°E)
Time: 08:29:47
(UTC+00:00)
Language:

Cosmos 158 Rocket - Orbit

View from above orbital plane
View from above orbital plane
View from above satellite
View from above satellite

Ground track
Ground track

The orbit data is extracted from the following two-line orbital elements,

1  2802U 67045B   21103.19531017 -.00000033  00000-0 -13372-5 0  9997
2  2802  74.0093  87.6139 0066320 167.4603 192.8224 14.43801908830440
Epoch (UTC): 13 April 2021 04:41:14
Eccentricity: 0.0066320
inclination: 74.0093°
perigee height: 699 km
apogee height: 793 km
right ascension of ascending node: 87.6139°
argument of perigee: 167.4603°
revolutions per day: 14.43801908
mean anomaly at epoch: 192.8224°
orbit number at epoch: 83044

The dashed part of the orbit path shows where the satellite is in the earth's shadow,  

DLR